Punta Arenas, Chile

5:41 AM -04 on July 25, 2017 (GMT -0400)
Carlos Ibanez Del Campo International

Weather History for SCCI - January, 2014

Change the Weather History Date:

Sunday, January 19, 2014

  Actual Average Record
Temperature  
Mean Temperature 50 °F -  
Max Temperature 55 °F 56 °F 75 °F (2013)
Min Temperature 45 °F 42 °F 37 °F (1998)
Degree Days  
Heating Degree Days 15    
Moisture  
Dew Point 38 °F    
Average Humidity 64    
Maximum Humidity 87    
Minimum Humidity 47    
Precipitation  
Precipitation 0.02 in 0.04 in - ()
Sea Level Pressure  
Sea Level Pressure 29.41 in    
Wind  
Wind Speed 19 mph ()    
Max Wind Speed 38 mph    
Max Gust Speed 41 mph    
Visibility 8.2 miles    
Events Rain    
Averages and records for this station are not official NWS values.
T = Trace of Precipitation, MM = Missing Value Source: Averaged Metar Reports

Daily Weather History Graph

Daily Weather History Graph

Search for Another Location

Airport or City:

Trip Planner

Search our weather history database for the weather conditions in past years. The results will help you decide how hot, cold, wet, or windy it might be!

Date:

Astronomy

Jan. 19, 2014 Rise Set
Actual Time 5:49 AM -03 9:57 PM -03
Civil Twilight 5:03 AM -03 10:43 PM -03
Nautical Twilight 3:56 AM -03 11:49 PM -03
Astronomical Twilight 2:26 AM -03 1:21 AM -03
Moon 10:52 PM -03 (1/19) 9:41 AM -03 (1/19)
Length of Visible Light 17h 39m
Length of Day
16h 08m
Waning Gibbous, 90% of the Moon is Illuminated
Jan 19
Waning Gibbous
Jan 24
Last Quarter
Jan 30
New
Feb 6
First Quarter
Feb 14
Full

Hourly Weather History & Observations

Time (-03) Temp. Windchill Dew Point Humidity Pressure Visibility Wind Dir Wind Speed Gust Speed Precip Events Conditions
12:00 AM 46.4 °F 42.4 °F 37.4 °F 71% 29.68 in 6.2 mi West 8.1 mph - N/A   Mostly Cloudy
1:00 AM 46.4 °F 39.0 °F 37.4 °F 71% 29.65 in 6.2 mi WNW 19.6 mph - N/A   Mostly Cloudy
2:00 AM 44.6 °F 38.8 °F 39.2 °F 81% 29.65 in 6.2 mi NNW 11.5 mph - N/A   Mostly Cloudy
3:00 AM 46 °F - 39 °F 69% 29.62 in 6 mi NW 18.4 mph - -   Overcast
3:00 AM 46.4 °F 39.5 °F 39.2 °F 76% 29.62 in 6.2 mi NW 17.3 mph - N/A Rain Light Rain Showers
4:00 AM 46.4 °F 40.1 °F 39.2 °F 76% 29.56 in 6.2 mi NNW 15.0 mph - N/A   Mostly Cloudy
5:00 AM 46.4 °F 40.7 °F 37.4 °F 71% 29.53 in 6.2 mi NNW 12.7 mph - N/A   Mostly Cloudy
6:00 AM 48 °F - 36 °F 54% 29.51 in 6 mi NNW 19.6 mph - -   Clear
6:00 AM 48.2 °F - 35.6 °F 62% 29.47 in 6.2 mi NW 18.4 mph - N/A   Mostly Cloudy
7:00 AM 48.2 °F - 37.4 °F 66% 29.44 in 6.2 mi NW 19.6 mph - N/A   Mostly Cloudy
8:00 AM 48.2 °F - 37.4 °F 66% 29.42 in 6.2 mi NW 26.5 mph - N/A   Scattered Clouds
9:00 AM 51 °F - 37 °F 48% 29.40 in 19 mi WNW 26.5 mph - -   Partly Cloudy
9:00 AM 50.0 °F - 37.4 °F 62% 29.39 in 6.2 mi WNW 26.5 mph 38.0 mph N/A   Scattered Clouds
10:00 AM 51.8 °F - 37.4 °F 58% 29.36 in 6.2 mi WNW 28.8 mph - N/A   Scattered Clouds
11:00 AM 53.6 °F - 39.2 °F 58% 29.33 in 6.2 mi West 33.4 mph - N/A   Scattered Clouds
12:00 PM 53 °F - 39 °F 47% 29.31 in 19 mi West 23.0 mph - -   Partly Cloudy
12:00 PM 53.6 °F - 39.2 °F 58% 29.30 in 6.2 mi West 23.0 mph - N/A   Scattered Clouds
1:00 PM 53.6 °F - 39.2 °F 58% 29.30 in 6.2 mi West 33.4 mph - N/A Rain Light Rain Showers
2:00 PM 55.4 °F - 37.4 °F 51% 29.27 in 6.2 mi West 29.9 mph 41.4 mph N/A   Mostly Cloudy
3:00 PM 53 °F - 39 °F 48% 29.30 in 19 mi West 35.7 mph - -   Mostly Cloudy
3:00 PM 53.6 °F - 39.2 °F 58% 29.30 in 6.2 mi West 35.7 mph - N/A   Mostly Cloudy
4:00 PM 53.6 °F - 39.2 °F 58% 29.30 in 6.2 mi West 33.4 mph - N/A   Mostly Cloudy
4:42 PM 50.0 °F - 42.8 °F 76% 29.33 in - WSW 25.3 mph - N/A Rain Light Rain Showers
5:00 PM 46.4 °F 38.1 °F 42.8 °F 87% 29.33 in 5.6 mi WSW 24.2 mph - N/A Rain Light Rain Showers
6:00 PM 49 °F - 40 °F 63% 29.36 in 19 mi WSW 17.3 mph - -   Mostly Cloudy
6:00 PM 48.2 °F - 41.0 °F 76% 29.36 in 6.2 mi WSW 17.3 mph 31.1 mph N/A   Mostly Cloudy
7:00 PM 48.2 °F - 37.4 °F 66% 29.36 in 6.2 mi WSW 20.7 mph - N/A   Mostly Cloudy
8:00 PM 50.0 °F - 37.4 °F 62% 29.33 in 6.2 mi SW 29.9 mph - N/A   Scattered Clouds
9:00 PM 48 °F - 36 °F 54% 29.35 in 19 mi WSW 38.0 mph - -   Partly Cloudy
9:00 PM 48.2 °F - 37.4 °F 66% 29.33 in 6.2 mi WSW 38.0 mph - N/A   Scattered Clouds
10:00 PM 46.4 °F 37.5 °F 35.6 °F 66% 29.39 in 6.2 mi WSW 27.6 mph - N/A   Scattered Clouds
11:00 PM 46.4 °F 39.0 °F 33.8 °F 62% 29.39 in 6.2 mi SW 19.6 mph 32.2 mph N/A   Scattered Clouds